Miscellaneous Local Product
Issued by NWS North Platte, NE

Home | Current Version | Previous Version | Text Only | Print | Product List | Glossary On
Versions: 1 2 3 4 5 6 7 8 9 10 11 12 13 14 15 16 17 18 19 20 21 22 23 24 25 26 27 28 29 30 31 32 33 34 35 36 37 38 39 40 41 42 43 44 45 46 47 48 49 50
176
AXUS43 KLBF 281310
MISLBF


WESTERN AND NORTH CENTRAL NEBRASKA HOURLY WEATHER ROUNDUP
NATIONAL WEATHER SERVICE NORTH PLATTE NE
800 AM CDT THU APR 28 2016

NOTE: "FAIR" INDICATES FEW OR NO CLOUDS BELOW 12,000 FEET WITH NO
SIGNIFICANT WEATHER AND/OR OBSTRUCTIONS TO VISIBILITY.

NOTE: STATIONS NOT REPORTING VARIABLES SUCH AS SKY/WEATHER OR
PRESSURE ARE PROVIDED BY RAWS AND APRS NETWORKS AND ARE NOT UNDER
NATIONAL WEATHER SERVICE QUALITY CONTROL.

...OBSERVATIONS IN AND NEAR THE EASTERN PANHANDLE OF NEBRASKA...

CITY           SKY/WX    TMP DP  RH WIND       PRES   REMARKS
PINE RIDGE     CLOUDY    32  30  92 NW8       29.99R WCI  25
CHADRON        CLOUDY    34  31  88 N6        30.01R WCI  29
ALLIANCE       CLOUDY    31  28  89 N9        29.98R WCI  23
SIDNEY         PTSUNNY   31  27  85 N14       29.96S WCI  21
CRESCENT LAKE    N/A     31  28  86 N13         N/A  WCI  21
BIG SPRINGS      N/A     31  29  91 W3          N/A
$$

...OBSERVATIONS IN NORTHERN NEBRASKA AND FAR SOUTHERN SOUTH DAKOTA...

CITY           SKY/WX    TMP DP  RH WIND       PRES   REMARKS
WINNER         LGT RAIN  37  34  89 N13       29.97R FOG     WCI  29
VALENTINE      CLOUDY    34  32  92 NW14      29.98R FOG     WCI  25
THEDFORD       CLOUDY    35  33  94 NW10      29.97R WCI  27
AINSWORTH      CLOUDY    34  34  99 NW16      29.95R FOG     WCI  24
O`NEILL        CLOUDY    41  40  95 N12       29.91R FOG
ORD            CLOUDY    39  38  96 NW13      29.91R FOG     WCI  31
BROKEN BOW     LGT RAIN  35  33  92 NW12      29.94R WCI  27
VALENTINE NWR    N/A     32  31  98 NW12G18     N/A  WCI  23
BUTTE            N/A     36  35  96 NW10        N/A  WCI  28
HALSEY           N/A     33  33 100 NW6         N/A  WCI  27
CHAMBERS         N/A     41  40  98 N3          N/A
EWING            N/A     41  40  96 N8          N/A
$$

...OBSERVATIONS IN SOUTHWEST NEBRASKA AND FAR NORTHEAST COLORADO...

CITY           SKY/WX    TMP DP  RH WIND       PRES   REMARKS
IMPERIAL       SUNNY     33  29  85 NW13      29.98R WCI  24
OGALLALA       CLOUDY    34  28  76 N14G20    29.99R WCI  25
NORTH PLATTE   SUNNY     32  30  92 NW8       29.97R WCI  25
MCCOOK         SUNNY     34  30  85 NW13      29.97R WCI  25
LEXINGTON      SUNNY     37  32  84 NW15G21   29.94R WCI  27
PAXTON           N/A     33  30  89 NW5         N/A  WCI  28
STAPLETON        N/A     34  31  90 CALM        N/A
GOTHENBURG       N/A     32  29  88 NW9         N/A  WCI  24
CALLAWAY         N/A     34  32  93 NW13        N/A  WCI  25
$$

...OBSERVATIONS IN CENTRAL LINCOLN COUNTY AREA...

CITY           SKY/WX    TMP DP  RH WIND       PRES   REMARKS
N.P. AIRPORT   SUNNY     32  30  92 NW8       29.97R WCI  25
N.P. DOWNTOWN    N/A     33  30  89 W3          N/A
N.P. SOUTHEAST   N/A     33  29  86 NW3         N/A
N.P. HILLCREST   N/A     33  30  90 NW5G12      N/A  WCI  28
$$

...SOME OBSERVATIONS FROM AROUND THE REGION...

CITY           SKY/WX    TMP DP  RH WIND       PRES   REMARKS
DENVER         CLOUDY    35  24  64 E13       29.95R WCI  26
LARAMIE        CLOUDY    27  23  85 NE7       29.89R WCI  19
CHEYENNE       CLOUDY    31  27  85 NE7       29.92S WCI  24
SCOTTSBLUFF    CLOUDY    33  29  85 NE3       29.99R
RAPID CITY     CLOUDY    32  32 100 N13       30.00R FOG     WCI  22
BISMARCK       CLOUDY    38  36  92 E3        30.08S
PIERRE         CLOUDY    36  33  89 N5        29.99R WCI  32
SIOUX FALLS    LGT RAIN  38  36  92 NE10      29.89R FOG     WCI  31
OMAHA          CLOUDY    47  44  90 NW16      29.81R
GRAND ISLAND   CLOUDY    40  38  93 NW17      29.91R WCI  31
KANSAS CITY    CLOUDY    47  42  83 SW8       29.86R
WICHITA        MOSUNNY   49  38  65 NW10      29.96R
OKLAHOMA CITY  MOSUNNY   55  45  68 NE12      29.92R
DALLAS         SUNNY     63  56  78 CALM      29.86R
AMARILLO       CLOUDY    46  38  73 E14       29.88R
DODGE CITY     CLOUDY    41  34  76 N14       29.97R
HAYS           CLOUDY    39  27  60 NW16      29.98R WCI  30
GOODLAND       CLOUDY    37  30  75 N12       29.97R WCI  29
$$




USA.gov is the U.S. government's official web portal to all federal, state and local government web resources and services.